Simultaneous Nadir Overpasses (SNOs) Predictions

Prediction of SNOs between GOES-16 and NOAA-19 Satellite Orbit:

Table of predicted SNOs for the next 14.0 days since TLE Epoch: 2/10/2017
Index Date Time (GOES-16) GOES-16 Lat,Lon NOAA-19 Lat,Lon Distance(km) Time Diff (sec)
1 02/10/2017 20:52:21 0.02, -89.49 0.59, -86.95 288.78 80
2 02/13/2017 09:14:03 -0.02, -89.51 0.57, -92.13 298.21 80
3 02/14/2017 08:59:57 -0.02, -89.52 -0.05, -89.35 19.89 80
4 02/15/2017 08:48:33 -0.02, -89.53 -0.73, -86.58 338.02 80
5 02/17/2017 21:10:12 0.03, -89.55 -0.48, -91.73 249.33 80
6 02/18/2017 21:01:27 0.03, -89.56 0.20, -88.96 69.22 80
7 02/19/2017 20:50:02 0.03, -89.57 0.82, -86.17 387.66 80
8 02/22/2017 09:11:43 -0.04, -89.62 0.34, -91.34 196.65 80
9 02/23/2017 08:57:37 -0.04, -89.63 -0.29, -88.56 121.95 80
10 02/24/2017 08:46:12 -0.04, -89.64 -0.93, -85.78 440.64 80




NCC Satellite Simultaneous Nadir Overpasses (SNOs) Prediction Service
